Lowell, ID

3:14 AM MDT on October 18, 2017 (GMT -0600)
Lowell

Weather History for KP69 - November, 2012

Change the Weather History Date:

Tuesday, November 27, 2012

  Actual Average Record
Temperature  
Mean Temperature 33 °F -  
Max Temperature 39 °F 40 °F 50 °F (1999)
Min Temperature 27 °F 31 °F 18 °F (2015)
Degree Days  
Heating Degree Days 32    
Moisture  
Dew Point 27 °F    
Average Humidity 85    
Maximum Humidity 92    
Minimum Humidity 67    
Precipitation  
Precipitation 0.00 in - - ()
Sea Level Pressure  
Sea Level Pressure 30.33 in    
Wind  
Wind Speed 3 mph (NNW)    
Max Wind Speed 6 mph    
Max Gust Speed -    
Averages and records for this station are not official NWS values.
T = Trace of Precipitation, MM = Missing Value Source: NWS Daily Summary

Daily Weather History Graph

Daily Weather History Graph

Search for Another Location

Airport or City:

Trip Planner

Search our weather history database for the weather conditions in past years. The results will help you decide how hot, cold, wet, or windy it might be!

Date:

Astronomy

Nov. 27, 2012 Rise Set
Actual Time 8:00 AM MST 5:00 PM MST
Civil Twilight 7:26 AM MST 5:33 PM MST
Nautical Twilight 6:49 AM MST 6:10 PM MST
Astronomical Twilight 6:13 AM MST 6:46 PM MST
Moon 4:35 PM MST (11/27) 7:07 AM MST (11/27)
Length of Visible Light 10h 07m
Length of Day
8h 59m
Waxing Gibbous, 99% of the Moon is Illuminated
Nov 27
Waxing Gibbous
Nov 28
Full
Dec 6
Last Quarter
Dec 13
New
Dec 19
First Quarter

Hourly Weather History & Observations

Time (MST) Temp. Windchill Dew Point Humidity Pressure Visibility Wind Dir Wind Speed Gust Speed Precip Events Conditions
12:52 AM 28.0 °F - 26.1 °F 92% 30.38 in - Calm Calm - N/A   Unknown
1:52 AM 28.0 °F - 26.1 °F 92% 30.36 in - Calm Calm - N/A   Unknown
2:52 AM 28.0 °F 22.8 °F 25.0 °F 88% 30.37 in - NNW 4.6 mph - N/A   Unknown
3:52 AM 28.0 °F 22.8 °F 25.0 °F 88% 30.38 in - NW 4.6 mph - N/A   Unknown
4:52 AM 28.0 °F 21.7 °F 24.1 °F 85% 30.38 in - NW 5.8 mph - N/A   Unknown
5:52 AM 27.0 °F 21.6 °F 24.1 °F 89% 30.39 in - NNW 4.6 mph - N/A   Unknown
6:52 AM 27.0 °F 20.5 °F 24.1 °F 89% 30.40 in - NNW 5.8 mph - N/A   Unknown
7:52 AM 27.0 °F 21.6 °F 23.0 °F 85% 30.41 in - NNW 4.6 mph - N/A   Unknown
8:52 AM 27.0 °F 21.6 °F 23.0 °F 85% 30.42 in - NNW 4.6 mph - N/A   Unknown
9:52 AM 28.0 °F 21.7 °F 24.1 °F 85% 30.40 in - North 5.8 mph - N/A   Unknown
10:52 AM 32.0 °F 27.5 °F 26.1 °F 79% 30.39 in - North 4.6 mph - N/A   Unknown
11:52 AM 34.0 °F - 28.0 °F 79% 30.37 in - Calm Calm - N/A   Unknown
12:52 PM 37.9 °F - 28.0 °F 68% 30.32 in - Calm Calm - N/A   Unknown
1:52 PM 39.0 °F 35.7 °F 28.9 °F 67% 30.29 in - North 4.6 mph - N/A   Unknown
2:52 PM 37.0 °F 33.3 °F 30.0 °F 76% 30.28 in - North 4.6 mph - N/A   Unknown
3:52 PM 36.0 °F 32.1 °F 30.0 °F 79% 30.27 in - NNW 4.6 mph - N/A   Unknown
4:52 PM 34.0 °F 31.0 °F 30.0 °F 85% 30.27 in - North 3.5 mph - N/A   Unknown
5:52 PM 33.1 °F 30.0 °F 30.0 °F 89% 30.27 in - NW 3.5 mph - N/A   Unknown
6:52 PM 32.0 °F 27.5 °F 28.9 °F 88% 30.26 in - Variable 4.6 mph - N/A   Unknown
7:52 PM 32.0 °F 28.7 °F 28.9 °F 88% 30.26 in - North 3.5 mph - N/A   Unknown
8:52 PM 32.0 °F - 28.9 °F 88% 30.26 in - Calm Calm - N/A   Unknown
9:52 PM 30.9 °F 27.5 °F 28.9 °F 92% 30.26 in - NW 3.5 mph - N/A   Unknown
10:52 PM 30.9 °F - 28.0 °F 89% 30.27 in - Calm Calm - N/A   Unknown
11:52 PM 30.9 °F 27.5 °F 28.0 °F 89% 30.26 in - NW 3.5 mph - N/A   Unknown